Precipitable_Water
1.18 1.14 1.12 1.05 0.93 0.76 0.46 0.37 0.62 0.72 0.66 0.66 0.67 0.68 0.68 0.69 0.66 0.59 0.47 0.46 0.41 0.33 0.34 0.40 0.40 0.35 0.36 0.37 0.29 0.33 0.31 0.34 0.31 0.24 0.22 0.21 0.17 0.19 0.18 0.18 0.17 0.15 0.15 0.15 0.17 0.14 0.09 0.28 0.26 0.18 0.25 0.31 0.32 0.32
1.19 1.15 1.15 1.08 0.95 0.81 0.51 0.38 0.56 0.69 0.75 0.66 0.66 0.65 0.65 0.65 0.64 0.63 0.55 0.50 0.47 0.37 0.36 0.45 0.45 0.46 0.46 0.47 0.42 0.39 0.34 0.35 0.36 0.28 0.29 0.26 0.20 0.22 0.18 0.12 0.24 0.14 0.18 0.17 0.18 0.17 0.26 0.29 0.26 0.29 0.34 0.30 0.32 0.33
1.21 1.18 1.17 1.13 0.99 0.85 0.58 0.44 0.53 0.63 0.74 0.73 0.69 0.64 0.63 0.62 0.58 0.59 0.62 0.59 0.46 0.33 0.32 0.35 0.36 0.45 0.51 0.51 0.55 0.37 0.40 0.43 0.40 0.43 0.36 0.31 0.21 0.25 0.17 0.17 0.19 0.23 0.26 0.19 0.19 0.21 0.24 0.28 0.30 0.29 0.34 0.33 0.34 0.34
1.21 1.21 1.19 1.16 1.05 0.90 0.65 0.52 0.59 0.65 0.67 0.72 0.71 0.68 0.62 0.60 0.59 0.63 0.58 0.58 0.49 0.40 0.25 0.28 0.42 0.40 0.49 0.50 0.51 0.51 0.47 0.49 0.45 0.43 0.34 0.30 0.25 0.31 0.22 0.21 0.20 0.22 0.25 0.21 0.19 0.21 0.24 0.25 0.26 0.28 0.30 0.34 0.34 0.35
1.23 1.22 1.21 1.18 1.10 0.95 0.71 0.60 0.66 0.68 0.63 0.64 0.69 0.67 0.66 0.66 0.67 0.62 0.57 0.58 0.54 0.40 0.26 0.25 0.32 0.39 0.41 0.44 0.45 0.47 0.45 0.43 0.40 0.35 0.32 0.28 0.33 0.31 0.29 0.27 0.19 0.23 0.19 0.17 0.14 0.20 0.19 0.19 0.24 0.28 0.28 0.30 0.32 0.32
1.24 1.22 1.21 1.19 1.14 1.00 0.77 0.67 0.69 0.71 0.66 0.62 0.60 0.64 0.66 0.67 0.69 0.62 0.45 0.53 0.50 0.52 0.36 0.26 0.43 0.38 0.41 0.40 0.39 0.40 0.42 0.40 0.40 0.36 0.34 0.36 0.39 0.33 0.24 0.20 0.22 0.23 0.24 0.24 0.21 0.25 0.26 0.27 0.28 0.28 0.27 0.30 0.33 0.33
1.25 1.24 1.22 1.21 1.18 1.05 0.83 0.70 0.68 0.72 0.70 0.66 0.63 0.60 0.64 0.69 0.67 0.53 0.41 0.44 0.52 0.48 0.34 0.29 0.33 0.44 0.45 0.42 0.40 0.38 0.39 0.38 0.38 0.36 0.33 0.32 0.32 0.33 0.26 0.18 0.23 0.24 0.26 0.26 0.27 0.28 0.25 0.28 0.25 0.30 0.30 0.32 0.35 0.35
1.26 1.24 1.22 1.20 1.18 1.08 0.86 0.75 0.71 0.74 0.72 0.70 0.65 0.63 0.63 0.66 0.67 0.59 0.62 0.60 0.56 0.42 0.34 0.24 0.27 0.33 0.45 0.41 0.40 0.46 0.38 0.37 0.34 0.32 0.34 0.29 0.32 0.30 0.20 0.20 0.22 0.25 0.26 0.27 0.27 0.29 0.29 0.32 0.33 0.32 0.34 0.34 0.32 0.32
1.25 1.23 1.21 1.19 1.16 1.09 0.90 0.79 0.75 0.78 0.75 0.72 0.71 0.68 0.61 0.53 0.47 0.53 0.66 0.66 0.59 0.43 0.27 0.25 0.21 0.21 0.40 0.37 0.43 0.45 0.47 0.36 0.42 0.32 0.29 0.30 0.26 0.21 0.18 0.18 0.19 0.21 0.23 0.25 0.29 0.30 0.31 0.30 0.31 0.33 0.34 0.34 0.32 0.33
1.24 1.21 1.19 1.18 1.15 1.08 0.92 0.81 0.83 0.83 0.79 0.78 0.69 0.55 0.43 0.46 0.57 0.56 0.47 0.42 0.42 0.42 0.36 0.26 0.32 0.27 0.35 0.35 0.35 0.36 0.40 0.36 0.31 0.34 0.37 0.28 0.23 0.22 0.21 0.21 0.23 0.24 0.24 0.27 0.26 0.25 0.27 0.27 0.29 0.31 0.32 0.35 0.36 0.36
1.22 1.20 1.18 1.16 1.13 1.06 0.91 0.85 0.91 0.87 0.84 0.68 0.56 0.48 0.56 0.58 0.45 0.39 0.32 0.29 0.31 0.27 0.30 0.29 0.30 0.27 0.37 0.27 0.29 0.35 0.31 0.32 0.25 0.29 0.30 0.27 0.25 0.21 0.19 0.20 0.22 0.23 0.25 0.26 0.27 0.29 0.31 0.32 0.31 0.32 0.34 0.37 0.38 0.39
1.17 1.18 1.16 1.14 1.11 1.04 0.90 0.92 0.96 0.84 0.74 0.70 0.65 0.65 0.58 0.47 0.39 0.30 0.26 0.28 0.26 0.22 0.30 0.27 0.29 0.31 0.32 0.37 0.29 0.30 0.24 0.26 0.18 0.32 0.28 0.22 0.27 0.29 0.26 0.21 0.20 0.22 0.24 0.26 0.29 0.29 0.30 0.32 0.34 0.35 0.37 0.38 0.39 0.41
1.13 1.14 1.13 1.12 1.08 1.00 0.89 0.96 0.94 0.86 0.80 0.71 0.58 0.50 0.43 0.41 0.31 0.25 0.21 0.23 0.23 0.28 0.32 0.32 0.29 0.32 0.33 0.35 0.29 0.27 0.21 0.20 0.27 0.20 0.17 0.24 0.29 0.29 0.28 0.24 0.20 0.21 0.23 0.27 0.29 0.31 0.31 0.32 0.36 0.37 0.38 0.41 0.43 0.42
1.11 1.12 1.10 1.08 1.04 0.96 0.90 0.94 0.93 0.82 0.74 0.61 0.53 0.42 0.38 0.34 0.33 0.31 0.28 0.28 0.32 0.33 0.32 0.32 0.31 0.29 0.32 0.28 0.29 0.21 0.23 0.24 0.17 0.14 0.16 0.19 0.20 0.23 0.26 0.27 0.23 0.22 0.25 0.27 0.30 0.32 0.32 0.33 0.35 0.39 0.42 0.44 0.43 0.41
1.09 1.08 1.06 1.03 0.99 0.93 0.91 0.93 0.89 0.80 0.71 0.58 0.54 0.40 0.41 0.44 0.45 0.43 0.43 0.40 0.40 0.39 0.36 0.32 0.32 0.32 0.29 0.26 0.28 0.25 0.21 0.16 0.16 0.13 0.16 0.22 0.25 0.26 0.25 0.26 0.25 0.24 0.26 0.28 0.31 0.33 0.35 0.37 0.39 0.40 0.43 0.44 0.44 0.42
1.05 1.01 0.96 0.99 0.95 0.92 0.89 0.90 0.82 0.77 0.69 0.61 0.56 0.46 0.46 0.44 0.44 0.45 0.43 0.39 0.42 0.40 0.39 0.36 0.30 0.27 0.25 0.26 0.23 0.20 0.19 0.16 0.16 0.20 0.22 0.24 0.23 0.25 0.30 0.32 0.31 0.28 0.28 0.29 0.32 0.35 0.37 0.38 0.38 0.39 0.42 0.42 0.42 0.40
0.97 0.86 0.95 0.95 0.92 0.90 0.87 0.79 0.73 0.64 0.59 0.56 0.51 0.55 0.50 0.46 0.41 0.43 0.46 0.43 0.48 0.40 0.31 0.32 0.27 0.25 0.31 0.25 0.23 0.25 0.20 0.22 0.26 0.26 0.27 0.28 0.29 0.29 0.34 0.33 0.31 0.32 0.31 0.31 0.33 0.35 0.37 0.39 0.40 0.40 0.39 0.40 0.39 0.39
0.84 0.90 0.93 0.91 0.88 0.82 0.76 0.73 0.64 0.58 0.50 0.54 0.50 0.52 0.52 0.49 0.45 0.46 0.48 0.49 0.45 0.40 0.37 0.33 0.35 0.28 0.26 0.23 0.23 0.24 0.26 0.28 0.28 0.26 0.25 0.27 0.28 0.32 0.33 0.33 0.37 0.33 0.33 0.34 0.34 0.35 0.37 0.38 0.38 0.38 0.40 0.40 0.38 0.36
0.86 0.88 0.89 0.88 0.83 0.71 0.61 0.61 0.63 0.49 0.50 0.54 0.55 0.55 0.55 0.52 0.51 0.49 0.48 0.49 0.48 0.47 0.42 0.38 0.33 0.29 0.28 0.28 0.26 0.28 0.30 0.29 0.27 0.29 0.31 0.35 0.37 0.38 0.39 0.37 0.37 0.38 0.37 0.37 0.38 0.38 0.40 0.41 0.42 0.42 0.41 0.37 0.33 0.35
0.86 0.85 0.85 0.84 0.79 0.63 0.53 0.55 0.63 0.52 0.46 0.49 0.54 0.52 0.51 0.50 0.49 0.48 0.46 0.46 0.44 0.42 0.37 0.33 0.31 0.31 0.30 0.31 0.33 0.32 0.33 0.34 0.31 0.29 0.30 0.33 0.35 0.38 0.42 0.42 0.41 0.41 0.41 0.43 0.44 0.44 0.43 0.42 0.43 0.42 0.38 0.36 0.35 0.36
0.77 0.77 0.80 0.76 0.66 0.64 0.57 0.52 0.50 0.51 0.51 0.48 0.51 0.51 0.49 0.51 0.45 0.42 0.41 0.44 0.40 0.36 0.32 0.31 0.28 0.30 0.34 0.34 0.34 0.33 0.32 0.32 0.31 0.32 0.31 0.31 0.34 0.35 0.40 0.46 0.43 0.44 0.43 0.43 0.43 0.44 0.45 0.43 0.42 0.38 0.36 0.36 0.39 0.40
0.68 0.73 0.65 0.65 0.57 0.56 0.53 0.55 0.50 0.53 0.50 0.49 0.49 0.48 0.44 0.41 0.39 0.38 0.39 0.35 0.32 0.30 0.28 0.26 0.27 0.28 0.27 0.27 0.27 0.30 0.31 0.32 0.32 0.32 0.33 0.33 0.31 0.34 0.38 0.44 0.45 0.41 0.42 0.45 0.47 0.47 0.48 0.47 0.43 0.41 0.40 0.41 0.40 0.36
0.68 0.63 0.58 0.55 0.47 0.46 0.44 0.54 0.44 0.46 0.41 0.43 0.46 0.42 0.40 0.37 0.36 0.38 0.30 0.30 0.28 0.27 0.26 0.27 0.26 0.27 0.27 0.28 0.30 0.31 0.32 0.32 0.31 0.31 0.32 0.34 0.35 0.38 0.37 0.42 0.47 0.48 0.47 0.51 0.53 0.53 0.49 0.45 0.41 0.42 0.42 0.38 0.36 0.39
0.65 0.52 0.44 0.42 0.43 0.39 0.44 0.41 0.45 0.42 0.43 0.40 0.38 0.34 0.32 0.31 0.35 0.29 0.24 0.24 0.22 0.24 0.24 0.24 0.26 0.26 0.27 0.28 0.27 0.28 0.30 0.32 0.31 0.31 0.32 0.33 0.33 0.32 0.35 0.37 0.45 0.50 0.51 0.52 0.52 0.51 0.46 0.46 0.46 0.42 0.38 0.37 0.40 0.37
0.42 0.38 0.41 0.36 0.42 0.37 0.34 0.35 0.37 0.39 0.36 0.37 0.32 0.28 0.29 0.32 0.25 0.23 0.21 0.21 0.20 0.21 0.23 0.25 0.27 0.27 0.25 0.26 0.28 0.28 0.33 0.36 0.34 0.33 0.36 0.37 0.35 0.33 0.34 0.36 0.42 0.48 0.55 0.53 0.51 0.47 0.46 0.47 0.40 0.36 0.37 0.40 0.38 0.37
0.34 0.39 0.37 0.36 0.35 0.33 0.33 0.33 0.33 0.34 0.34 0.30 0.29 0.30 0.30 0.25 0.22 0.19 0.18 0.16 0.18 0.21 0.23 0.24 0.24 0.26 0.27 0.30 0.29 0.31 0.33 0.39 0.39 0.37 0.40 0.42 0.37 0.31 0.31 0.35 0.36 0.45 0.57 0.57 0.53 0.48 0.46 0.40 0.36 0.36 0.39 0.40 0.37 0.33
0.33 0.34 0.37 0.41 0.38 0.37 0.34 0.35 0.36 0.32 0.28 0.25 0.25 0.24 0.22 0.18 0.16 0.16 0.18 0.20 0.21 0.24 0.27 0.28 0.28 0.28 0.28 0.30 0.33 0.36 0.38 0.40 0.39 0.40 0.44 0.48 0.46 0.38 0.34 0.35 0.38 0.51 0.57 0.55 0.51 0.48 0.44 0.38 0.35 0.39 0.40 0.36 0.33 0.29
0.36 0.38 0.32 0.35 0.34 0.34 0.30 0.30 0.28 0.25 0.25 0.25 0.22 0.17 0.15 0.15 0.14 0.19 0.22 0.26 0.27 0.28 0.29 0.31 0.32 0.32 0.32 0.33 0.34 0.35 0.36 0.39 0.40 0.43 0.46 0.50 0.49 0.44 0.39 0.40 0.49 0.57 0.56 0.55 0.52 0.48 0.40 0.38 0.40 0.39 0.35 0.31 0.28 0.27
0.35 0.37 0.36 0.31 0.32 0.31 0.28 0.24 0.22 0.21 0.22 0.20 0.17 0.16 0.17 0.20 0.23 0.24 0.26 0.28 0.29 0.29 0.28 0.28 0.29 0.31 0.31 0.32 0.33 0.35 0.36 0.38 0.37 0.37 0.38 0.39 0.42 0.45 0.49 0.50 0.52 0.53 0.53 0.51 0.48 0.42 0.42 0.42 0.39 0.36 0.32 0.29 0.27 0.25
0.34 0.37 0.31 0.28 0.24 0.22 0.24 0.25 0.22 0.23 0.24 0.23 0.22 0.22 0.23 0.23 0.25 0.28 0.28 0.27 0.27 0.27 0.29 0.29 0.29 0.29 0.29 0.29 0.29 0.31 0.36 0.39 0.42 0.42 0.42 0.42 0.44 0.47 0.47 0.48 0.49 0.50 0.50 0.47 0.45 0.44 0.43 0.40 0.37 0.32 0.29 0.26 0.25 0.23
0.33 0.30 0.26 0.25 0.22 0.23 0.24 0.25 0.26 0.26 0.25 0.26 0.27 0.24 0.23 0.25 0.27 0.29 0.29 0.29 0.30 0.30 0.28 0.27 0.28 0.30 0.30 0.30 0.30 0.31 0.32 0.39 0.42 0.45 0.49 0.49 0.47 0.46 0.46 0.46 0.47 0.48 0.47 0.45 0.43 0.41 0.38 0.35 0.30 0.27 0.25 0.24 0.23 0.21
0.24 0.21 0.19 0.18 0.20 0.24 0.27 0.26 0.26 0.25 0.25 0.25 0.25 0.26 0.26 0.25 0.22 0.25 0.29 0.30 0.29 0.27 0.28 0.29 0.29 0.29 0.33 0.34 0.36 0.36 0.38 0.40 0.41 0.44 0.47 0.48 0.47 0.46 0.47 0.46 0.46 0.46 0.45 0.42 0.39 0.38 0.34 0.29 0.27 0.25 0.23 0.22 0.21 0.19
0.23 0.24 0.24 0.23 0.22 0.22 0.25 0.25 0.24 0.24 0.25 0.24 0.23 0.25 0.25 0.24 0.21 0.25 0.30 0.32 0.30 0.30 0.30 0.31 0.33 0.34 0.35 0.35 0.36 0.38 0.40 0.41 0.42 0.46 0.47 0.48 0.47 0.46 0.46 0.45 0.45 0.43 0.40 0.39 0.36 0.32 0.28 0.27 0.25 0.23 0.22 0.20 0.19 0.18
Wind_Speed
22 21 19 18 17 15 14 14 12 10 8 8 6 4 3 3 4 6 8 8 7 7 6 6 6 6 6 7 6 5 6 4 5 6 6 5 5 4 5 4 4 5 5 4 4 3 1 7 6 7 4 5 6 6
24 21 19 18 17 16 14 13 12 11 10 9 9 9 8 6 5 5 6 6 6 4 3 3 3 3 4 4 4 4 4 4 3 5 4 4 4 4 3 3 3 2 4 3 5 3 3 6 4 5 5 5 6 6
26 23 21 19 18 17 15 14 13 12 10 9 10 11 11 10 9 7 6 6 5 4 3 2 1 1 1 1 1 2 2 3 2 2 2 2 2 2 2 1 0 1 2 2 0 3 6 6 5 5 6 6 5 5
28 26 24 22 20 19 17 15 14 12 9 9 10 10 10 10 11 11 9 8 7 6 5 6 5 6 5 5 4 4 4 4 4 3 4 3 4 3 4 4 4 4 2 3 4 6 4 7 8 8 8 7 6 6
31 29 27 24 22 21 19 17 15 12 10 9 10 10 9 9 10 11 11 11 11 9 9 10 10 9 9 9 9 8 8 8 7 7 6 6 7 7 9 9 10 9 9 7 5 5 4 4 7 10 9 9 9 8
33 31 29 27 25 23 21 19 17 15 14 12 10 11 11 11 12 12 13 13 12 12 11 12 12 12 12 12 12 12 12 11 10 10 11 10 10 9 8 8 9 8 9 11 11 10 8 6 6 8 10 10 10 9
34 32 30 29 29 26 24 22 20 19 17 15 14 12 12 12 12 12 11 11 12 13 13 13 13 12 13 14 14 14 14 14 14 14 15 15 14 13 14 15 13 13 13 12 12 10 10 10 8 9 9 10 10 10
37 36 33 30 29 28 26 24 23 22 21 19 16 15 13 13 13 13 14 13 12 12 12 12 14 14 14 15 15 16 17 17 17 18 17 17 16 15 15 16 15 17 17 16 14 14 14 12 11 11 10 10 11 11
39 37 35 33 31 30 28 26 25 24 23 21 19 16 15 14 14 14 14 14 13 12 12 12 12 14 14 15 16 17 17 19 20 20 20 18 19 18 18 17 16 17 16 17 17 16 15 15 16 15 14 14 13 14
41 39 38 35 33 31 30 28 27 26 24 22 21 19 18 17 16 14 13 12 13 14 14 15 14 14 13 14 16 17 18 19 20 20 20 22 23 27 28 29 28 24 20 18 17 19 18 18 18 18 19 18 18 17
43 42 40 37 35 32 30 29 28 26 25 24 23 22 19 17 16 16 15 13 13 14 14 15 16 15 16 15 16 17 18 20 21 21 20 22 21 19 19 22 26 28 30 25 24 23 22 21 21 19 19 20 19 19
44 42 42 40 37 35 33 31 30 29 27 26 23 21 21 21 20 18 18 16 15 15 14 13 14 14 14 14 15 16 16 18 22 23 21 22 20 22 22 23 24 24 26 29 24 23 22 22 22 22 22 22 21 21
47 45 43 42 40 38 36 34 32 29 26 24 23 22 21 22 22 22 20 17 16 16 16 15 15 15 15 16 16 16 15 19 19 20 24 26 25 26 25 24 23 23 24 26 28 26 23 22 22 22 22 23 22 22
48 47 45 44 43 39 37 36 33 31 27 26 25 26 24 22 23 22 21 19 19 17 17 17 17 17 17 17 17 16 18 17 18 19 22 19 21 24 23 22 22 22 22 23 25 27 26 24 23 23 23 22 22 23
49 48 46 45 44 41 40 38 36 32 28 27 26 26 28 26 24 21 20 19 19 19 18 18 19 19 19 19 19 16 17 19 18 20 20 24 27 26 24 22 22 23 23 23 24 25 25 25 24 22 23 22 22 23
49 47 46 46 45 43 41 39 36 33 31 28 29 27 25 24 24 22 21 21 21 20 20 20 20 20 22 21 19 20 18 22 22 22 26 28 28 28 27 27 24 22 23 24 24 24 24 24 24 23 23 23 24 24
51 47 48 48 45 43 43 37 34 33 30 31 32 32 27 23 24 24 23 23 22 22 23 22 22 24 22 22 22 22 24 26 27 29 29 29 29 30 31 29 26 23 22 23 23 24 25 24 24 24 24 24 24 24
51 50 50 49 46 42 40 38 35 33 33 33 31 32 31 27 25 24 24 25 24 26 25 26 24 26 26 25 26 27 29 29 29 29 30 30 29 28 27 26 27 27 25 25 25 25 26 25 26 26 25 25 25 26
52 53 53 52 47 40 36 38 38 33 33 32 32 30 29 29 29 27 27 27 26 26 26 27 28 29 30 31 31 33 33 33 34 34 34 34 33 32 29 27 26 27 27 26 25 26 26 26 26 26 26 26 26 26
52 53 55 53 47 37 35 33 38 34 32 33 32 32 31 31 29 29 28 28 29 29 31 32 33 34 34 34 35 35 35 34 33 34 35 33 32 31 30 28 29 26 26 27 26 25 25 25 25 26 26 27 27 28
50 53 53 50 42 36 35 33 34 34 35 31 29 28 29 28 28 28 28 29 31 33 34 35 37 39 40 41 42 42 44 43 43 43 43 41 38 35 32 31 28 28 27 26 26 26 26 26 26 26 27 28 28 28
47 53 46 45 39 36 34 33 31 30 29 28 28 29 28 29 28 28 27 30 33 34 35 37 39 40 41 43 43 44 46 45 46 45 44 42 38 35 33 31 29 29 29 29 30 29 28 27 26 26 26 26 26 26
49 46 42 38 35 35 32 34 31 30 29 29 27 26 26 25 26 26 28 31 33 35 38 39 41 41 43 44 44 45 45 46 46 45 43 41 39 36 35 33 33 31 29 28 27 27 27 26 25 25 24 24 24 25
44 40 37 36 34 32 32 32 31 30 28 27 27 26 25 26 25 28 31 32 34 34 35 37 38 40 41 41 42 44 44 42 42 41 39 37 37 37 36 36 34 34 32 30 29 29 28 27 26 24 24 24 24 24
36 37 36 33 33 31 31 30 30 29 28 28 27 26 25 25 26 30 31 33 34 34 36 36 36 37 38 39 39 39 37 35 34 34 33 34 35 34 33 33 34 33 32 31 30 28 27 25 24 24 24 24 24 24
33 33 36 37 34 31 31 29 30 28 25 24 26 25 25 26 28 31 30 29 30 29 30 30 31 32 33 34 35 33 31 30 30 30 30 29 31 32 33 31 32 32 31 30 28 27 26 24 23 23 23 23 23 22
32 31 33 31 30 29 27 26 26 25 25 25 24 24 24 26 29 30 28 27 26 27 28 28 29 30 31 31 30 29 28 27 26 26 26 27 29 30 31 31 31 30 28 28 28 26 25 24 22 22 21 21 21 21
30 30 31 30 27 28 25 25 25 25 24 24 22 25 26 27 27 26 26 26 26 27 28 29 29 29 29 29 28 26 24 23 22 22 22 21 23 25 26 27 28 28 28 27 25 24 23 23 22 21 20 20 19 19
27 27 27 26 24 25 25 25 26 26 25 26 27 28 29 29 29 29 29 29 29 28 28 29 30 29 28 28 26 25 23 22 21 21 22 22 22 23 24 24 26 27 27 25 24 23 22 21 20 19 18 18 18 18
26 26 22 23 24 26 27 26 27 28 29 30 30 31 32 33 33 33 32 31 31 31 31 30 29 27 27 26 25 24 23 22 22 22 21 22 21 22 24 24 23 25 25 24 22 20 19 18 17 17 17 17 17 17
22 23 22 24 26 27 27 28 28 28 29 30 31 33 35 33 33 33 34 34 33 31 30 29 28 27 26 25 23 23 23 22 22 21 20 19 18 19 21 23 23 24 24 22 20 19 18 17 16 16 16 16 16 17
21 22 23 23 24 24 24 25 26 27 28 29 30 30 31 31 32 31 30 30 29 29 29 27 25 24 23 23 23 22 21 20 20 20 19 17 17 18 20 22 22 22 21 20 19 18 17 16 15 15 14 15 15 16
18 18 19 19 18 20 22 22 24 25 27 28 29 29 29 29 29 27 26 27 27 27 27 26 24 23 22 21 21 20 20 19 19 19 18 16 17 19 21 21 21 21 20 19 18 17 16 14 13 13 13 14 15 15
Wind_Direction
289 292 293 296 302 308 318 327 324 322 302 263 255 251 270 326 360 12 14 22 39 45 42 66 68 71 67 69 75 64 64 59 59 60 65 60 71 68 64 72 85 105 107 128 126 127 207 153 147 162 165 146 155 159
278 283 283 289 291 297 301 309 314 308 299 273 250 246 254 272 288 319 340 351 2 14 31 64 61 70 74 77 63 58 60 58 64 59 51 52 42 49 69 49 80 85 144 121 150 153 153 166 170 179 173 163 164 159
270 273 274 279 281 286 288 292 300 298 286 270 253 252 256 260 271 278 295 313 325 349 352 337 298 263 323 3 22 35 33 22 21 12 15 15 359 47 18 332 12 303 202 213 206 230 221 213 212 200 196 198 193 191
264 265 265 271 273 276 278 278 285 290 270 261 251 256 258 261 263 264 273 287 293 293 300 289 278 262 256 269 272 269 278 299 305 312 301 303 308 306 297 285 269 253 206 235 263 258 249 238 224 216 212 210 209 212
259 259 259 263 265 268 269 268 269 265 262 260 250 253 256 260 269 270 269 276 277 276 279 282 286 269 261 259 260 263 268 274 278 282 284 285 293 299 293 290 273 249 241 235 252 242 231 254 231 219 217 220 220 222
254 255 255 256 259 261 262 259 257 252 250 251 254 251 254 267 273 274 274 272 275 276 280 282 279 275 268 264 261 261 263 266 267 270 272 277 279 284 288 283 278 266 253 246 252 250 248 256 244 224 221 223 230 234
250 249 251 253 254 254 255 253 249 246 244 245 248 253 257 266 271 270 272 276 276 278 277 282 283 276 271 269 266 266 265 264 265 268 267 269 273 274 275 270 274 271 266 259 251 244 249 244 247 232 229 231 234 242
247 246 248 251 250 248 249 247 245 242 239 240 244 251 260 265 266 270 269 273 277 281 283 280 277 281 273 275 271 269 268 268 266 266 269 267 270 269 273 273 278 267 263 257 249 247 247 247 247 240 239 237 240 246
244 243 244 247 245 245 244 243 240 238 235 235 238 246 256 262 265 268 269 267 268 269 281 279 279 281 274 273 273 275 272 273 269 267 267 265 263 257 261 275 273 267 261 256 249 248 248 247 245 244 244 246 249 252
242 242 241 243 242 241 238 238 237 234 232 233 239 245 254 257 258 265 267 268 269 269 270 274 277 279 280 283 280 276 272 273 273 270 270 265 267 270 268 266 264 262 261 253 247 247 249 250 247 247 246 250 254 256
240 240 238 239 236 235 234 234 231 227 230 236 241 243 247 250 255 259 261 261 265 275 272 275 267 275 278 283 283 281 280 275 273 273 271 272 278 279 279 272 268 262 249 249 248 250 251 253 249 249 251 252 255 257
238 238 235 234 232 231 230 229 225 229 234 235 239 242 245 251 254 253 255 261 258 263 269 270 272 271 279 284 288 287 288 290 280 275 273 272 288 288 281 280 279 266 252 240 245 248 250 251 250 251 253 255 256 259
236 235 232 230 228 228 227 226 225 226 226 233 240 243 247 249 248 246 248 256 257 260 261 266 274 272 278 282 286 290 291 290 295 288 277 277 287 290 288 278 276 268 256 244 241 245 250 252 251 251 253 256 257 259
233 231 229 227 224 224 224 223 222 222 229 237 238 243 243 247 251 248 250 254 254 258 258 261 269 274 276 280 278 286 286 298 302 295 288 285 288 295 295 283 272 268 259 248 244 244 246 250 252 253 253 255 257 261
230 227 224 222 220 221 221 221 220 223 231 237 240 246 243 247 251 250 250 253 258 255 256 263 270 272 273 275 275 282 289 290 288 292 288 288 290 288 291 290 280 266 257 251 248 246 246 247 250 253 254 256 259 264
224 222 222 219 218 218 217 216 221 229 237 241 244 245 246 249 245 246 248 252 253 250 258 265 267 273 269 271 274 270 279 281 289 292 296 295 291 287 284 283 280 270 256 250 248 246 244 246 249 252 255 258 262 267
218 224 219 215 215 215 212 217 223 229 237 244 245 241 245 249 245 245 247 251 249 252 259 264 263 262 271 275 275 272 278 282 284 290 294 294 291 288 284 275 271 267 257 250 249 247 248 250 250 253 257 262 265 269
222 218 213 210 209 209 214 221 224 232 241 244 245 243 241 246 246 247 248 248 251 255 258 262 265 264 266 272 276 278 279 282 284 287 290 292 289 289 287 276 266 262 257 253 250 249 249 250 253 256 259 262 267 272
218 213 207 205 207 212 220 224 226 237 242 246 245 243 242 245 246 249 249 250 255 258 260 264 265 267 271 274 275 276 278 280 283 285 286 286 284 282 280 274 268 260 255 253 250 250 251 252 256 258 261 264 268 272
211 208 205 203 207 218 224 230 228 237 242 244 244 244 248 248 249 250 250 251 254 259 263 264 267 271 273 275 276 277 278 279 281 284 285 284 284 281 272 271 264 261 256 252 251 251 252 254 257 259 263 267 270 273
203 201 199 201 211 220 225 228 230 236 238 243 242 241 246 249 250 251 252 252 256 261 267 268 271 272 272 275 275 276 277 277 277 278 280 279 278 273 272 264 262 255 252 249 248 251 252 255 258 262 267 269 272 274
202 194 198 204 213 219 223 226 229 231 237 243 239 242 248 248 252 254 255 257 262 265 268 271 272 274 276 276 277 277 277 277 277 277 276 274 270 266 263 260 255 251 250 249 251 253 257 259 261 263 266 271 272 273
191 197 201 206 214 218 223 223 231 233 237 237 239 243 250 253 255 255 260 263 267 271 271 272 274 275 277 279 280 280 279 278 277 275 272 268 263 258 256 256 251 248 248 251 250 252 256 259 260 265 268 269 272 276
192 198 203 208 214 217 223 226 228 231 235 238 242 249 254 254 257 261 265 267 274 277 273 273 275 278 280 282 282 282 282 279 277 274 268 262 258 255 254 251 251 248 247 250 251 253 254 259 259 262 265 270 275 278
197 202 207 211 215 218 222 226 229 233 238 242 245 253 256 256 261 266 270 278 278 274 274 275 276 277 280 283 285 286 284 279 276 272 267 260 257 253 251 250 247 246 245 249 250 249 252 252 256 261 267 272 275 277
202 207 209 212 215 220 224 228 230 235 240 245 248 253 256 261 266 271 278 282 277 275 275 274 276 279 283 284 287 287 283 279 275 270 266 260 254 249 246 247 243 243 248 245 241 241 244 249 255 262 269 272 272 275
202 208 210 214 216 220 228 234 236 240 243 245 252 253 259 265 269 276 279 276 272 276 277 277 279 281 283 288 287 285 283 277 272 273 268 263 254 251 245 243 241 242 241 236 235 239 241 246 254 264 270 272 272 274
208 210 210 214 222 228 234 236 238 240 246 250 252 256 258 263 271 274 272 275 275 278 280 281 283 284 284 284 285 284 281 277 272 272 267 267 258 252 244 242 238 234 233 230 234 237 240 245 256 263 267 269 271 275
211 212 213 221 229 233 235 237 241 247 250 252 258 261 265 267 271 272 273 274 274 276 277 280 283 283 282 282 280 276 273 270 266 267 264 263 261 251 243 237 234 230 226 227 231 235 239 247 254 260 264 267 272 278
215 217 225 227 231 237 243 244 252 254 256 260 262 267 269 271 271 269 269 270 271 272 275 278 279 278 277 276 274 271 268 264 262 264 267 268 261 246 236 230 226 220 220 222 226 230 235 243 252 259 263 268 274 280
216 225 234 239 244 248 251 253 258 260 261 262 265 266 269 272 271 269 268 268 268 269 271 272 273 273 272 270 267 266 265 262 259 262 265 265 255 240 228 220 217 215 215 218 223 229 235 244 252 257 262 268 274 281
231 235 240 246 252 254 256 256 259 260 263 265 267 269 271 272 271 272 268 265 263 263 263 266 267 265 266 267 262 262 263 261 255 255 257 257 241 228 215 211 210 210 212 218 224 228 235 242 249 255 261 269 277 284
237 240 244 247 253 255 257 259 262 265 265 266 267 268 269 270 271 270 265 258 258 259 260 260 259 260 263 262 259 260 257 255 251 247 242 239 226 214 208 208 207 209 211 217 221 227 233 238 245 254 263 271 280 287